Hourly Weather Roundup
Issued by NWS Central Illinois

Home | Current Version | Previous Version | Graphics & Text | Print | Product List | Glossary On
Versions: 1 2 3 4 5 6 7 8 9 10 11 12 13 14 15 16 17 18 19 20 21 22 23 24 25 26 27 28 29 30 31 32 33 34 35 36 37 38 39 40 41 42 43 44 45 46 47 48 49 50
000
NZUS43 KILX 030910
HWRILX

AREA WEATHER ROUNDUP
NATIONAL WEATHER SERVICE, LINCOLN IL
300 AM CST TUE MAR 03 2015


CITY           SKY/WX    TMP DP  RH WIND       PRES   REMARKS
BLOOMINGTON    LGT SNOW  28  23  81 SE14      30.03F WCI  17
CHAMPAIGN      FRZ RAIN  28  22  78 SE12      30.10F WCI  18
DECATUR        CLOUDY    29  22  75 SE13      30.04F WCI  19
FLORA          CLOUDY    31  24  72 SE12      30.08F WCI  22
GALESBURG      MIX PCPN  27  24  88 SE8       30.02F WCI  19
JACKSONVILLE   CLOUDY    31  24  75 SE8       30.03F WCI  23
LACON          MIX PCPN  26  21  82 SE8       30.06F WCI  18
LAWRENCEVILLE  CLOUDY    31  22  69 SE9       30.12F WCI  23
LITCHFIELD     CLOUDY    30  19  64 SE7       30.06R WCI  23
$$


CITY           SKY/WX    TMP DP  RH WIND       PRES   REMARKS
LINCOLN        LGT RAIN  31  25  79 SE6       30.09F WCI  25
MACOMB         LGT RAIN  29  26  88 SE10      30.03F WCI  19
MATTOON        CLOUDY    30  18  60 SE13      30.06F WCI  20
MT CARMEL AP   CLOUDY    34  25  69 SE9       30.11F WCI  26
OLNEY-NOBLE AP CLOUDY    32  21  64 SE9       30.08F WCI  24
PARIS          MIX PCPN  29  22  75 SE5       30.10F WCI  24
PEORIA         FRZ RAIN  29  23  78 S8        30.07S WCI  21
PONTIAC        MIX PCPN  28  24  84 SE14      30.09F WCI  17
RANTOUL        CLOUDY    29  23  78 SE12      30.08F WCI  19
ROBINSON       CLOUDY    30  22  70 SE12      30.11F WCI  21
SPRINGFIELD    CLOUDY    29  22  75 SE6       30.06R WCI  23
TAYLORVILLE    CLOUDY    30  21  69 SE9       30.06F WCI  22
$$

...REGIONAL REPORTS...


CITY           SKY/WX    TMP DP  RH WIND       PRES   REMARKS
CHICAGO O`HARE CLOUDY    26  17  68 SE9       30.08F WCI  17
KANKAKEE       CLOUDY    26  20  79 SE9       30.13F WCI  17
MOLINE         CLOUDY    26  21  81 SE13      30.01F HAZE    WCI  15
MOUNT VERNON   CLOUDY    32  21  64 SE7       30.06F WCI  26
PITTSFIELD     CLOUDY    29  25  82 SE6       30.02F WCI  23
QUINCY         CLOUDY    28  24  85 SE12      29.97F FOG     WCI  18
ROCKFORD       CLOUDY    25  16  68 SE10      30.07F WCI  15
$$


CITY           SKY/WX    TMP DP  RH WIND       PRES   REMARKS
BURLINGTON     CLOUDY    28  24  85 SE10      29.95F WCI  19
CEDAR RAPIDS   LGT SNOW  25  22  88 SE14      29.92F VSB 3/4 WCI  13
DES MOINES     CLOUDY    30  21  69 SE14      29.83F WCI  19
KIRKSVILLE     CLOUDY    29  26  89 SE15      29.92F WCI  18
OTTUMWA        FRZ RAIN  29  23  78 SE13      29.93F WCI  19
ST LOUIS       CLOUDY    34  23  64 SE7       30.04F WCI  28
$$


CITY           SKY/WX    TMP DP  RH WIND       PRES   REMARKS
TERRE HAUTE    CLOUDY    29  18  63 SE8       30.11F WCI  21
EVANSVILLE     CLOUDY    35  23  61 E7        30.13F WCI  29
INDIANAPOLIS   FRZ RAIN  27  17  66 E12       30.14F WCI  17
LAFAYETTE      MIX PCPN  26  18  71 SE6       30.14F WCI  19
MADISON        CLOUDY    25  14  63 SE9       30.03F WCI  15
MILWAUKEE      CLOUDY    27  16  63 S7        30.08F WCI  19
$$





USA.gov is the U.S. government's official web portal to all federal, state and local government web resources and services.